Meteo Giornale » Osservazioni meteo Italia » Pisa-S Giusto

ore: 23:15 - Osservazioni Meteo Pisa-S Giusto
Lat. 43° 41' N Lon. 10° 23' E Alt. 2 metri s.l.m.

sereno Europe/Rome

15 °C

Sereno

Temp. 24 Ore

13 °C

24 °C

Nord

3.7 Km/h

Dew point 13 °C

Umidità 87 %

Visibilità  10 Km

Il sole sorge alle ore 07:09

Il sole tramonta alle ore 19:09

Data e Ora Cielo e Fenomeni T °C DP °C Um. % Pres. hPa Vis. km Vento km/h
Oggi h: 23:15 sereno Sereno 15 13 87 1020 10 N 3.7
Oggi h: 22:45 sereno Sereno 15 15 100 1020 10 N 3.7
Oggi h: 22:15 sereno Sereno 16 15 93 1020 10 S/SO 7.4
Oggi h: 21:45 sereno Sereno 17 15 88 1020 10 N 3.7
Oggi h: 21:15 sereno Sereno 18 15 82 1020 10 N 3.7
Oggi h: 20:45 sereno Sereno 19 16 82 1020 10 N 3.7
Oggi h: 20:15 sereno Sereno 19 15 77 1019 10 N 5.5
Oggi h: 19:45 poco_nuvoloso Poco Nuvoloso 19 15 77 1019 10 NO 7.4
Oggi h: 19:15 poco_nuvoloso Poco Nuvoloso 20 15 72 1019 10 NO 9.3
Oggi h: 18:45 poco_nuvoloso Poco Nuvoloso 21 14 64 1019 10 O/NO 11.1
Oggi h: 18:15 nuvoloso Nuvoloso 22 15 64 1019 10 O/NO 13
Oggi h: 17:45 nuvoloso Nuvoloso 23 14 56 1018 10 NO 16.7
Oggi h: 17:15 poco_nuvoloso Poco Nuvoloso 24 11 43 1018 10 N 5.5
Oggi h: 16:45 poco_nuvoloso Poco Nuvoloso 23 11 46 1019 10 N 11.1
Oggi h: 16:15 poco_nuvoloso Poco Nuvoloso 23 11 46 1019 10 N 5.5
Oggi h: 15:45 poco_nuvoloso Poco Nuvoloso 24 10 41 1019 10 E 16.7
Oggi h: 15:15 poco_nuvoloso Poco Nuvoloso 24 10 41 1019 10 E 20.3
Oggi h: 14:45 poco_nuvoloso Poco Nuvoloso 24 10 41 1019 10 E/SE 22.2
Oggi h: 14:15 poco_nuvoloso Poco Nuvoloso 24 11 43 1019 10 E 20.3
Oggi h: 13:45 poco_nuvoloso Poco Nuvoloso 24 10 41 1019 10 E 14.8
Oggi h: 13:15 sereno Sereno 24 10 41 1019 10 E/SE 16.7
Oggi h: 12:45 sereno Sereno 23 11 46 1019 10 E/NE 13
Oggi h: 12:15 sereno Sereno 23 13 53 1019 10 E/SE 16.7
Oggi h: 11:45 sereno Sereno 22 12 53 1019 10 E/SE 14.8
Oggi h: 11:15 sereno Sereno 21 12 56 1019 10 E/SE 14.8
Oggi h: 10:45 sereno Sereno 20 13 64 1019 10 E/SE 16.7
Oggi h: 10:15 sereno Sereno 18 13 72 1019 10 E/SE 16.7
Oggi h: 09:45 sereno Sereno 18 13 72 1019 10 E 9.3
Oggi h: 09:15 sereno Sereno 16 13 82 1019 10 N 5.5
Oggi h: 08:45 sereno Sereno 15 13 87 1019 10 E 7.4
Oggi h: 08:15 sereno Sereno 14 13 93 1019 10 E/SE 11.1
Oggi h: 07:45 sereno Sereno 13 13 100 1019 10 E 7.4
Oggi h: 07:15 sereno Sereno 13 12 93 1019 10 E 11.1
Oggi h: 06:45 sereno Sereno 13 12 93 1019 10 N 5.5
Oggi h: 06:15 sereno Sereno 14 13 93 1019 10 N 5.5
Oggi h: 05:45 sereno Sereno 14 12 87 1018 10 N 5.5
Oggi h: 05:15 sereno Sereno 14 13 93 1018 10 N 5.5
Oggi h: 04:45 sereno Sereno 14 13 93 1018 10 N 5.5
Oggi h: 04:15 sereno Sereno 14 13 93 1018 10 N 3.7
Oggi h: 03:45 sereno Sereno 14 12 87 1018 10 N 3.7
Oggi h: 03:15 sereno Sereno 14 12 87 1019 10 N 5.5
Oggi h: 02:45 sereno Sereno 15 13 87 1019 10 E/SE 13
Oggi h: 02:15 sereno Sereno 15 13 87 1019 10 E/SE 13
Oggi h: 01:45 sereno Sereno 15 13 87 1019 10 E/SE 11.1
Oggi h: 01:15 sereno Sereno 15 13 87 1019 10 S/SE 9.3
Oggi h: 00:45 sereno Sereno 16 13 82 1019 10 SE 9.3
Oggi h: 00:15 sereno Sereno 16 13 82 1019 10 E/SE 13
Ieri h: 23:45 sereno Sereno 16 15 93 1019 10 S/SE 14.8